Location: Boleita
(10.4833°N, 66.8167°W)
Time: 02:40:14
(UTC+00:00)

GPS 2-15 Rocket1 - Pass Details

Date: 08 November 2025
Orbit: 608 x 653 km, 19.8° (Epoch: 09 December)

Event Time Altitude Azimuth Distance (km) Brightness Sun altitude
Exits shadow 09:36:32 15° 272° (W) 1,712 4.7 -11.2°
Maximum altitude 09:40:17 49° 200° (SSW) 812 3.6 -10.3°
Drops below altitude 10° 09:44:52 10° 125° (SE) 2,021 7.0 -9.2°
Sets 09:47:19 0° 120° (ESE) 2,936 8.4 -8.6°
